Regional Weather Roundup
Issued by NWS

Home | Current Version | Previous Version | Graphics & Text | Print | Product List | Glossary Off
Versions: 1 2 3 4 5 6 7 8 9 10 11 12 13 14 15 16 17 18 19 20 21 22 23 24 25 26 27 28 29 30 31 32 33 34 35 36 37 38 39 40 41 42 43 44 45 46 47 48 49 50

000
ASUS43 KMKX 211920
RWRWI

WISCONSIN REGIONAL WEATHER ROUNDUP
NATIONAL WEATHER SERVICE MILWAUKEE/SULLIVAN WI
100 PM CST WED FEB 21 2018

NOTE: "FAIR" INDICATES FEW OR NO CLOUDS BELOW 12,000 FEET WITH NO
SIGNIFICANT WEATHER AND/OR OBSTRUCTIONS TO VISIBILITY.

WIZ001-002-006>008-014>016-023>028-212000-
NORTHWEST WISCONSIN

CITY           SKY/WX    TMP DP  RH WIND       PRES   REMARKS
SUPERIOR ARPT  FAIR      20   5  51 SW9       30.56R WCI   9
ASHLAND        FAIR      18   4  54 SW14      30.56R WCI   4
HAYWARD        FAIR      17   2  51 SW9       30.55F WCI   6
SIREN          FAIR      18   2  50 SW8       30.59S WCI   7
CUMBERLAND     FAIR      14   3  62 SW9       30.57S WCI   2
RICE LAKE      FAIR      15   4  62 SW5       30.61S WCI   8
CHETEK         FAIR      16   3  55 W3        30.59F
LADYSMITH      FAIR      17   6  61 W7        30.58F WCI   7
EAU CLAIRE     FAIR      16   3  56 NW8       30.61F WCI   5
MENOMONIE      FAIR      19   4  51 W8        30.63S WCI   9
NEW RICHMOND   FAIR      18   4  54 SW5       30.61F WCI  11
OSCEOLA        FAIR      19   3  49 SW5       30.64F WCI  12
$$

WIZ003>005-009-010-017-018-212000-
NORTH CENTRAL WISCONSIN

CITY           SKY/WX    TMP DP  RH WIND       PRES   REMARKS
MANITOWISH WTR FAIR      15   6  68 SW8       30.48F WCI   3
ARBOR VITAE    FAIR      18   9  66 NW6       30.49S WCI  10
WOODRUFF       FAIR      18   9  66 NW6       30.49S WCI  10
RHINELANDER    FAIR      18   7  62 MISG      30.50S
EAGLE RIVER    FAIR      17   4  56 W10G16    30.48R WCI   5
LAND O LAKES   FAIR      18   6  60 W8        30.48S WCI   8
PHILLIPS       FAIR      15   5  64 NW6       30.51F WCI   7
TOMAHAWK       FAIR      18   6  58 W6        30.52S WCI  10
MEDFORD        FAIR      16   4  58 W8        30.54R WCI   5
MERRILL        FAIR      21   8  57 SW8       30.54S WCI  11
$$

WIZ029-030-035-036-043>047-212000-
CENTRAL WISCONSIN

CITY           SKY/WX    TMP DP  RH WIND       PRES   REMARKS
WAUSAU         FAIR      15   6  67 W9        30.55S WCI   3
MOSINEE        MOSUNNY   16   9  73 W9        30.57S WCI   4
MARSHFIELD     FAIR      16   5  62 W9        30.56S WCI   4
STEVENS POINT  FAIR      16   5  63 SW7       30.59R WCI   6
WAUPACA        FAIR      24   7  48 W7        30.59S WCI  16
WAUTOMA        FAIR      24  10  55 N8        30.60  WCI  15
WISC RAPIDS    FAIR      20   7  57 N9        30.60S WCI   9
CAMP DOUGLAS   PTSUNNY   21  10  63 CALM      30.61S
$$

WIZ011>013-019>022-031-037>040-048>050-212000-
NORTHEAST WISCONSIN

CITY           SKY/WX    TMP DP  RH WIND       PRES   REMARKS
ANTIGO         PTSUNNY   16  10  74 W9        30.51S WCI   5
SHAWANO        FAIR      26  10  50 NW8       30.57S WCI  17
OCONTO         FAIR      25  10  54 W10G16    30.56S WCI  15
STURGEON BAY   FAIR      23  10  57 W9        30.56S WCI  13
GREEN BAY      FAIR      25  11  55 W13       30.57S WCI  14
MANITOWOC      FAIR      25  13  60 W8        30.58S WCI  16
APPLETON       PTSUNNY   25   7  46 W9        30.56S WCI  15
CLINTONVILLE   FAIR      23   6  48 W9        30.58S WCI  13
OSHKOSH        FAIR      23   9  55 NW10      30.57F WCI  12
$$

WIZ032>034-041-042-053>061-212000-
SOUTHWEST WISCONSIN

CITY           SKY/WX    TMP DP  RH WIND       PRES   REMARKS
LA CROSSE      FAIR      22  10  60 N5        30.65S WCI  16
SPARTA         FAIR      20  12  70 NW3       30.64R
VIROQUA        FAIR      18  12  75 CALM      30.59S
BOSCOBEL       FAIR      26   8  46 NW6       30.64S WCI  19
PRAIRIE DU CHI FAIR      22   4  45 NW8       30.64S WCI  13
PLATTEVILLE    FAIR      23  13  67 NW7       30.61R WCI  14
$$

WIZ056-057-062-063-064-067-068-212000-
SOUTH CENTRAL WISCONSIN

CITY           SKY/WX    TMP DP  RH WIND       PRES   REMARKS
REEDSBURG      FAIR      22   8  52 W5        30.61R WCI  16
BARABOO/DELLS  FAIR      23   6  48 NW7       30.60R WCI  15
LONE ROCK      FAIR      24  10  55 W6        30.62F WCI  17
MINERAL POINT  FAIR      27  16  63 NW5       30.58R WCI  21
MADISON        PTSUNNY   23  10  57 N8        30.60R WCI  14
MIDDLETON      FAIR      26  15  63 N7        30.60R WCI  18
WATERTOWN      FAIR      23  13  64 NW8       30.59R WCI  14
MONROE         FAIR      27  18  69 N7        30.57S WCI  19
JANESVILLE     CLOUDY    27  18  69 N6        30.59R WCI  20
$$

WIZ051-052-058>065-066-070>072-212000-
SOUTHEAST WISCONSIN

CITY           SKY/WX    TMP DP  RH WIND       PRES   REMARKS
MILWAUKEE      CLOUDY    29  15  56 NW7       30.58R WCI  22
WAUKESHA       SUNNY     23  12  63 W8        30.58S WCI  14
MILWAUKEE/TIMM SUNNY     27  10  50 N7        30.59R WCI  19
RACINE         FAIR      29  15  56 NW7       30.59S WCI  22
BURLINGTON     FAIR      26  15  61 N8        30.59R WCI  18
KENOSHA        FAIR      28  17  63 NW6       30.58R WCI  22
FOND DU LAC    FAIR      25  11  55 N9        30.58S WCI  15
SHEBOYGAN      FAIR      24  14  65 NW12      30.57S WCI  13
WEST BEND      FAIR      25  16  68 NW12      30.57S WCI  14
JUNEAU         FAIR      21  12  67 NW6       30.60R WCI  14
$$

LSZ147-162-212000-
LAKE SUPERIOR

STATION/POSITION TIME  TEMP    WIND        PRES    WAVE
                       AIR SEA DIR/SP/G            HT/PER
                 (UTC) (F)     (DEG/KT/KT) (MB)    (FT/S)
DEVILS ISLAND    1900   17     240/ 14/ 17 1035.1F
SAXON HARBOR     1830   20     240/  6/ 14 1034.2S
$$

LMZ867-665-643>646-212000-
LAKE MICHIGAN

STATION/POSITION TIME  TEMP    WIND        PRES    WAVE
                       AIR SEA DIR/SP/G            HT/PER
                 (UTC) (F)     (DEG/KT/KT) (MB)    (FT/S)
NORTHPORT PIER   1840   21                 1034.2S
KEWAUNEE LAKESHO 1854   23     290/  7/ 10 1034.1F
SHEBOYGAN LAKESH 1900   23     280/  9/ 10 1036.5R
PORT WASHINGTON  1830   26     290/  5/  8 1036.6R
MILWAUKEE LAKESH 1900   26     320/  5/  7   N/A
KENOSHA   LAKESH 1900   27     350/  4/  6 1035.9
$$

TC  - TEMPERATURE IN CELSIUS
VSB - VISIBILITY IN STATUTE MILES
WCI - WIND CHILL INDEX
HX  - HEAT INDEX




USA.gov is the U.S. government's official web portal to all federal, state and local government web resources and services.